Regional Weather Roundup
Issued by NWS

Home | Current Version | Previous Version | Text Only | Print | Product List | Glossary On
Versions: 1 2 3 4 5 6 7 8 9 10 11 12 13 14 15 16 17 18 19 20 21 22 23 24 25 26 27 28 29 30 31 32 33 34 35 36 37 38 39 40 41 42 43 44 45 46 47 48 49 50
000
ASUS44 KOUN 020610
RWROK

WEATHER ROUNDUP FOR OKLAHOMA
NATIONAL WEATHER SERVICE NORMAN OK
100 AM CDT THU JUL 02 2015

NOTE: "FAIR" INDICATES FEW OR NO CLOUDS BELOW 12,000 FEET WITH NO
      SIGNIFICANT WEATHER AND/OR OBSTRUCTIONS TO VISIBILITY.

OKZ001>007-009>012-014-015-017-020700-
NORTHWEST OKLAHOMA AND THE PANHANDLE

CITY           SKY/WX    TMP DP  RH WIND       PRES   REMARKS
GAGE           MOCLDY    77  66  68 CALM      29.92F
6HR MIN TEMP:  76; 6HR MAX TEMP:  95;

GUYMON         CLOUDY    81  61  50 E8        29.95S
ENID/WOODRING  MOCLDY    81  66  61 SW7       29.83F
$$

OKZ016-021>023-033>039-044-045-020700-
SOUTHWEST OKLAHOMA

CITY           SKY/WX    TMP DP  RH WIND       PRES   REMARKS
LAWTON/REGL    CLEAR     76  67  73 S6        29.90F
6HR MIN TEMP:  76; 6HR MAX TEMP:  93;

LAWTON/FT SILL CLEAR     79  68  69 SW9       29.89F
FREDERICK      CLEAR     77  67  71 S8        29.88F
CLINTON        PTCLDY    81  66  60 SW18      29.92F
HOBART         CLEAR     78  67  68 SW13      29.91F
ALTUS AFB      CLEAR     77  68  73 S8        29.90F
$$

OKZ018>020-024>031-020700-
CENTRAL OKLAHOMA

CITY           SKY/WX    TMP DP  RH WIND       PRES   REMARKS
OKLAHOMA CITY  MOCLDY    81  67  62 S14       29.87F
6HR MIN TEMP:  80; 6HR MAX TEMP:  91;

OKC/WILEY POST   N/A     82  67  60 SW16      29.87S
OKC/TINKER AFB PTCLDY    80  68  66 S18       29.87S
STILLWATER     PTCLDY    81  68  64 SW10      29.83F
GUTHRIE        CLEAR     84  67  56 SW13      29.85S
$$

OKZ008-013-054>072-020700-
NORTHEAST OKLAHOMA

CITY           SKY/WX    TMP DP  RH WIND       PRES   REMARKS
TULSA          MOCLDY    85  71  63 S13       29.82R HX  90
6HR MIN TEMP:  85; 6HR MAX TEMP:  92;

TULSA/JONES    MOCLDY    84  70  62 S9        29.83R
PONCA CITY     MOCLDY    84  68  58 SW10      29.80F
BARTLESVILLE   CLEAR     83  71  67 SW9       29.81R
MUSKOGEE       CLEAR     82  71  69 S13G23    29.86S
$$

OKZ032-040>043-046>053-073>077-020700-
SOUTH CENTRAL/SOUTHEAST OKLAHOMA

CITY           SKY/WX    TMP DP  RH WIND       PRES   REMARKS
ARDMORE/DWNTWN PTCLDY    79  68  69 SW9       29.90F
MCALESTER      CLOUDY    81  71  71 S12G18    29.89F
$$



USA.gov is the U.S. government's official web portal to all federal, state and local government web resources and services.